Tracking 29892 objects as of 21-Nov-2024
HD Live streaming from Space Station
objects crossing your sky now

FENGYUN 1C DEB

Track FENGYUN 1C DEB now!
10-day predictions


NORAD ID: 29958
Int'l Code: 1999-025KG
Perigee: 813.8 km
Apogee: 893.4 km
Inclination: 98.7 °
Period: 101.9 minutes
Semi major axis: 7224 km
RCS: 0.1257 m2 (medium)
Launch date: May 10, 1999
Source: People's Republic of China (PRC)
Launch site: Taiyaun Space Center, China (TSC)

Note: This is SATELLITE DEBRIS
Your satellite tracking list
Your tracking list is empty




NASA's NSSDC Master Catalog

Two Line Element Set (TLE):
1 29958U 99025KG  24325.04343394  .00001036  00000-0  56196-3 0  9994
2 29958  98.6923 344.4248 0055064   0.1910 359.9275 14.13775142919714
Source of the keplerian elements: AFSPC